Weather History for Miami, FL

Change the Weather History Date:

Wednesday, February 6, 2013

  Actual Average Record
Temperature  
Mean Temperature 73 °F 69 °F  
Max Temperature 81 °F 77 °F 87 °F (1985)
Min Temperature 64 °F 61 °F 32 °F (1947)
Degree Days  
Heating Degree Days 0 1  
Month to date heating degree days 0 6  
Since 1 July heating degree days 20 96  
Cooling Degree Days 8 5  
Month to date cooling degree days 17 30  
Year to date cooling degree days 286 181  
Growing Degree Days 22 (Base 50)    
Moisture  
Dew Point 62 °F    
Average Humidity 72    
Maximum Humidity 93    
Minimum Humidity 51    
Precipitation  
Precipitation 0.00 in 0.08 in 0.94 in (1912)
Month to date precipitation T 0.46  
Year to date precipitation 0.54 2.08  
Snow  
Snow 0.00 in - - ()
Month to date snowfall 0.0  
Since 1 July snowfall 0.0  
Snow Depth 0.00 in    
Sea Level Pressure  
Sea Level Pressure 30.08 in    
Wind  
Wind Speed 6 mph (East)    
Max Wind Speed 15 mph    
Max Gust Speed 21 mph    
Visibility 10 miles    
Events      
T = Trace of Precipitation, MM = Missing Value Source: NWS Daily Summary

Daily Weather History Graph

Daily Weather History Graph

Search for Another Location

Airport:

Trip Planner

Search our weather history database for the weather conditions in past years. The results will help you decide how hot, cold, wet, or windy it might be!

Date:

Astronomy

Feb. 06, 2013 Rise Set
Actual Time 7:02 AM EST 6:08 PM EST
Civil Twilight 6:38 AM EST 6:32 PM EST
Nautical Twilight 6:11 AM EST 6:59 PM EST
Astronomical Twilight 5:44 AM EST 7:27 PM EST
Moon 3:33 AM EST (2/6) 2:36 PM EST (2/6)
Length of Visible Light 11h 54m
Length of Day
11h 06m
Waning Crescent, 17% of the Moon is Illuminated
Feb 6
Waning Crescent
Feb 10
New
Feb 17
First Quarter
Feb 25
Full
Mar 4
Last Quarter

Hourly Weather History & Observations

Time (EST) Temp. Heat Index Dew Point Humidity Pressure Visibility Wind Dir Wind Speed Gust Speed Precip Events Conditions
12:53 AM 69.1 °F - 63.0 °F 81% 30.06 in 10.0 mi Calm Calm - N/A   Mostly Cloudy
2:53 AM 68.0 °F - 64.0 °F 87% 30.04 in 10.0 mi Calm Calm - N/A   Overcast
3:53 AM 66.0 °F - 63.0 °F 90% 30.04 in 10.0 mi Calm Calm - N/A   Partly Cloudy
4:53 AM 64.9 °F - 62.1 °F 90% 30.05 in 10.0 mi Calm Calm - N/A   Clear
5:53 AM 64.9 °F - 63.0 °F 93% 30.06 in 9.0 mi Calm Calm - N/A   Scattered Clouds
6:53 AM 64.9 °F - 62.1 °F 90% 30.09 in 10.0 mi Calm Calm - N/A   Scattered Clouds
7:53 AM 68.0 °F - 64.0 °F 87% 30.10 in 10.0 mi North 3.5 mph - N/A   Scattered Clouds
8:53 AM 72.0 °F - 63.0 °F 73% 30.11 in 10.0 mi North 3.5 mph - N/A   Scattered Clouds
9:53 AM 75.9 °F - 64.0 °F 67% 30.12 in 10.0 mi Calm Calm - N/A   Scattered Clouds
10:53 AM 78.1 °F - 61.0 °F 56% 30.11 in 10.0 mi East 8.1 mph - N/A   Mostly Cloudy
11:53 AM 80.1 °F 81.1 °F 61.0 °F 52% 30.11 in 10.0 mi ESE 5.8 mph 16.1 mph N/A   Mostly Cloudy
12:53 PM 79.0 °F - 62.1 °F 56% 30.09 in 10.0 mi East 11.5 mph - N/A   Scattered Clouds
1:53 PM 80.1 °F 80.9 °F 60.1 °F 50% 30.07 in 10.0 mi ESE 11.5 mph - N/A   Scattered Clouds
2:53 PM 79.0 °F - 60.1 °F 52% 30.06 in 10.0 mi ESE 11.5 mph - N/A   Scattered Clouds
3:53 PM 78.1 °F - 62.1 °F 58% 30.06 in 10.0 mi East 12.7 mph - N/A   Scattered Clouds
4:53 PM 77.0 °F - 62.1 °F 60% 30.06 in 10.0 mi ESE 11.5 mph - N/A   Scattered Clouds
5:53 PM 73.9 °F - 62.1 °F 66% 30.06 in 10.0 mi East 11.5 mph - N/A   Scattered Clouds
6:53 PM 73.0 °F - 63.0 °F 71% 30.07 in 10.0 mi ESE 10.4 mph - N/A   Scattered Clouds
7:53 PM 73.0 °F - 63.0 °F 71% 30.09 in 10.0 mi East 9.2 mph - N/A   Scattered Clouds
8:53 PM 73.0 °F - 61.0 °F 66% 30.09 in 10.0 mi East 8.1 mph - N/A   Partly Cloudy
9:53 PM 72.0 °F - 62.1 °F 71% 30.10 in 10.0 mi ESE 6.9 mph - N/A   Scattered Clouds
10:53 PM 72.0 °F - 62.1 °F 71% 30.10 in 10.0 mi ESE 10.4 mph - N/A   Partly Cloudy
11:53 PM 72.0 °F - 62.1 °F 71% 30.09 in 10.0 mi ESE 8.1 mph - N/A   Partly Cloudy